When you browse on this site, cookies collect data to enhance your experience and personalize the content and advertising you see.
Visit our Privacy Policy to learn more. By continuing to use the site, you agree to this use of cookies and data.
  • In Czech Republic
  • List of Countries
  • For 7 days
  • Water Temperature
  • Satellite Maps
  • Weather Map
  • Weather Widgets
  • user-avatar
    Login

    Hourly Weather Banbridge

    Today, 19 January, Saturday

    Time Temperature Precipitation Wind Pressure Humidity
    00:00 +4°C° 0 mm 2 mps 745 mmHg 95%
    01:00 +4°C° 0 mm 2 mps 745 mmHg 95%
    02:00 +5°C° 0 mm 1 mps 745 mmHg 95%
    03:00 +5°C° 0 mm 1 mps 745 mmHg 95%
    04:00 +5°C° 0.2 mm 1 mps 745 mmHg 96%
    05:00 +5°C° 0.2 mm 1 mps 745 mmHg 96%
    06:00 +5°C° 0 mm 1 mps 745 mmHg 96%
    07:00 +5°C° 0 mm 1 mps 745 mmHg 96%
    08:00 +5°C° 0 mm 1 mps 746 mmHg 96%
    09:00 +5°C° 0 mm 1 mps 746 mmHg 96%
    10:00 +6°C° 0.1 mm 1 mps 746 mmHg 95%
    11:00 +7°C° 0.1 mm 1 mps 746 mmHg 95%
    12:00 +6°C° 0 mm 2 mps 747 mmHg 95%
    13:00 +6°C° 0.1 mm 2 mps 747 mmHg 95%
    14:00 +6°C° 0.1 mm 2 mps 747 mmHg 95%
    15:00 +6°C° 0.1 mm 2 mps 747 mmHg 95%
    16:00 +6°C° 0.1 mm 2 mps 748 mmHg 95%
    17:00 +6°C° 0.1 mm 2 mps 748 mmHg 95%
    18:00 +5°C° 0.1 mm 2 mps 748 mmHg 95%
    19:00 +5°C° 0 mm 2 mps 749 mmHg 95%
    20:00 +6°C° 0 mm 1 mps 749 mmHg 94%
    21:00 +6°C° 0 mm 1 mps 749 mmHg 94%
    22:00 +6°C° 0 mm 1 mps 750 mmHg 94%
    23:00 +6°C° 0 mm 1 mps 750 mmHg 94%

    Tomorrow, 20 January, Sunday

    Time Temperature Precipitation Wind Pressure Humidity
    00:00 +5°C° 0 mm 0 mps 750 mmHg 94%
    01:00 +4°C° 0 mm 0 mps 751 mmHg 94%
    02:00 +4°C° 0 mm 0 mps 751 mmHg 94%
    03:00 +3°C° 0 mm 0 mps 751 mmHg 95%
    04:00 +4°C° 0.1 mm 1 mps 752 mmHg 95%
    05:00 +4°C° 0.1 mm 1 mps 752 mmHg 95%
    06:00 +4°C° 0.1 mm 1 mps 753 mmHg 96%
    07:00 +3°C° 0.4 mm 3 mps 754 mmHg 94%
    08:00 +4°C° 0.4 mm 4 mps 755 mmHg 92%
    09:00 +3°C° 0.4 mm 6 mps 756 mmHg 90%
    10:00 +3°C° 0 mm 6 mps 756 mmHg 87%
    11:00 +4°C° 0 mm 6 mps 757 mmHg 84%
    12:00 +4°C° 0 mm 6 mps 758 mmHg 80%
    13:00 +4°C° 0 mm 6 mps 758 mmHg 79%
    14:00 +3°C° 0 mm 5 mps 759 mmHg 78%
    15:00 +3°C° 0 mm 5 mps 759 mmHg 76%
    16:00 +3°C° 0 mm 4 mps 760 mmHg 79%
    17:00 +2°C° 0 mm 3 mps 760 mmHg 82%
    18:00 +1°C° 0 mm 3 mps 761 mmHg 85%
    19:00 +2°C° 0 mm 2 mps 761 mmHg 86%
    20:00 +1°C° 0 mm 2 mps 762 mmHg 87%
    21:00 +1°C° 0 mm 2 mps 762 mmHg 88%
    22:00 +1°C° 0 mm 2 mps 762 mmHg 89%
    23:00 -1°C° 0 mm 2 mps 762 mmHg 89%

    Day after tomorrow, 21 January, Monday

    Time Temperature Precipitation Wind Pressure Humidity
    00:00 +1°C° 0 mm 1 mps 762 mmHg 90%
    01:00 +1°C° 0 mm 1 mps 762 mmHg 89%
    02:00 +1°C° 0 mm 1 mps 762 mmHg 88%
    03:00 +1°C° 0 mm 1 mps 761 mmHg 88%
    04:00 +1°C° 0 mm 1 mps 761 mmHg 87%
    05:00 -1°C° 0 mm 2 mps 760 mmHg 87%
    06:00 -1°C° 0 mm 2 mps 759 mmHg 87%
    07:00 -1°C° 0 mm 2 mps 759 mmHg 87%
    08:00 -1°C° 0 mm 3 mps 758 mmHg 86%
    09:00 0°C° 0 mm 3 mps 758 mmHg 85%
    10:00 0°C° 0 mm 4 mps 756 mmHg 80%
    11:00 +1°C° 0 mm 6 mps 755 mmHg 74%
    12:00 +2°C° 0 mm 7 mps 753 mmHg 68%
    13:00 +2°C° 0.3 mm 7 mps 752 mmHg 71%
    14:00 +2°C° 0.3 mm 7 mps 750 mmHg 74%
    15:00 +1°C° 0.3 mm 8 mps 748 mmHg 77%
    16:00 +1°C° 1.3 mm 8 mps 747 mmHg 81%
    17:00 +1°C° 1.3 mm 8 mps 745 mmHg 85%
    18:00 +1°C° 1.3 mm 8 mps 744 mmHg 89%
    19:00 0°C° 0.7 mm 7 mps 743 mmHg 88%
    20:00 -1°C° 0.7 mm 6 mps 743 mmHg 87%
    21:00 -1°C° 0.7 mm 5 mps 742 mmHg 86%
    22:00 -1°C° 0 mm 5 mps 742 mmHg 85%
    23:00 -2°C° 0 mm 6 mps 742 mmHg 84%

    22 January, Tuesday

    Time Temperature Precipitation Wind Pressure Humidity
    00:00 -2°C° 0 mm 7 mps 742 mmHg 83%
    01:00 -2°C° 0 mm 7 mps 742 mmHg 83%
    02:00 -2°C° 0 mm 7 mps 742 mmHg 84%
    03:00 -2°C° 0 mm 6 mps 742 mmHg 84%
    04:00 -3°C° 0 mm 6 mps 742 mmHg 83%
    05:00 -3°C° 0 mm 6 mps 742 mmHg 83%
    06:00 -3°C° 0 mm 6 mps 742 mmHg 83%
    07:00 -2°C° 0 mm 5 mps 742 mmHg 82%
    08:00 -2°C° 0 mm 5 mps 742 mmHg 82%
    09:00 -4°C° 0 mm 5 mps 743 mmHg 82%
    10:00 -2°C° 0 mm 5 mps 743 mmHg 79%
    11:00 -2°C° 0 mm 6 mps 743 mmHg 76%
    12:00 -1°C° 0 mm 6 mps 744 mmHg 73%
    13:00 -1°C° 0 mm 6 mps 744 mmHg 73%
    14:00 -1°C° 0 mm 6 mps 744 mmHg 73%
    15:00 0°C° 0 mm 5 mps 744 mmHg 73%
    16:00 -1°C° 0 mm 5 mps 744 mmHg 75%
    17:00 -1°C° 0 mm 5 mps 744 mmHg 77%
    18:00 -2°C° 0 mm 5 mps 744 mmHg 79%
    19:00 -2°C° 0 mm 5 mps 745 mmHg 79%
    20:00 -2°C° 0 mm 5 mps 745 mmHg 80%
    21:00 -2°C° 0 mm 5 mps 745 mmHg 80%
    22:00 -2°C° 0 mm 5 mps 745 mmHg 81%
    23:00 -2°C° 0 mm 5 mps 746 mmHg 81%

    23 January, Wednesday

    Time Temperature Precipitation Wind Pressure Humidity
    00:00 -2°C° 0 mm 4 mps 746 mmHg 82%
    01:00 -2°C° 0 mm 4 mps 746 mmHg 82%
    02:00 -2°C° 0 mm 4 mps 746 mmHg 82%
    03:00 -2°C° 0 mm 4 mps 746 mmHg 82%
    04:00 -2°C° 0 mm 4 mps 747 mmHg 82%
    05:00 -1°C° 0 mm 4 mps 747 mmHg 83%
    06:00 -1°C° 0 mm 4 mps 747 mmHg 83%
    07:00 -2°C° 0 mm 4 mps 747 mmHg 84%
    08:00 -2°C° 0 mm 4 mps 748 mmHg 86%
    09:00 -1°C° 0 mm 3 mps 748 mmHg 87%
    10:00 -1°C° 0 mm 4 mps 749 mmHg 83%
    11:00 +1°C° 0 mm 4 mps 749 mmHg 79%
    12:00 +2°C° 0 mm 5 mps 749 mmHg 75%
    13:00 +3°C° 0 mm 4 mps 749 mmHg 76%
    14:00 +3°C° 0 mm 4 mps 749 mmHg 76%
    15:00 +3°C° 0 mm 4 mps 749 mmHg 77%
    16:00 +2°C° 0 mm 3 mps 749 mmHg 82%
    17:00 +1°C° 0 mm 3 mps 750 mmHg 86%
    18:00 0°C° 0 mm 3 mps 750 mmHg 91%
    19:00 0°C° 0 mm 3 mps 750 mmHg 91%
    20:00 +1°C° 0 mm 2 mps 750 mmHg 91%
    21:00 -1°C° 0 mm 2 mps 751 mmHg 92%
    22:00 -1°C° 0 mm 2 mps 751 mmHg 92%
    23:00 -1°C° 0 mm 2 mps 751 mmHg 92%

    24 January, Thursday

    Time Temperature Precipitation Wind Pressure Humidity
    00:00 -1°C° 0 mm 3 mps 751 mmHg 93%
    01:00 -1°C° 0 mm 3 mps 752 mmHg 93%
    02:00 -1°C° 0 mm 3 mps 752 mmHg 93%
    03:00 -1°C° 0 mm 3 mps 752 mmHg 93%
    04:00 -1°C° 0 mm 3 mps 753 mmHg 92%
    05:00 -1°C° 0 mm 2 mps 753 mmHg 92%
    06:00 -1°C° 0 mm 2 mps 754 mmHg 92%
    07:00 -1°C° 0 mm 2 mps 754 mmHg 92%
    08:00 -1°C° 0 mm 2 mps 755 mmHg 92%
    09:00 +1°C° 0 mm 2 mps 755 mmHg 93%
    10:00 +2°C° 0 mm 2 mps 756 mmHg 89%
    11:00 +4°C° 0 mm 1 mps 756 mmHg 86%
    12:00 +5°C° 0 mm 1 mps 756 mmHg 83%
    13:00 +5°C° 0 mm 1 mps 756 mmHg 83%
    14:00 +5°C° 0 mm 1 mps 757 mmHg 84%
    15:00 +5°C° 0 mm 1 mps 757 mmHg 84%
    16:00 +5°C° 0 mm 1 mps 757 mmHg 84%
    17:00 +4°C° 0 mm 0 mps 757 mmHg 84%
    18:00 +3°C° 0 mm 0 mps 758 mmHg 83%
    19:00 +3°C° 0 mm 0 mps 758 mmHg 83%
    20:00 +4°C° 0 mm 1 mps 758 mmHg 82%
    21:00 +4°C° 0 mm 1 mps 759 mmHg 82%
    22:00 +4°C° 0 mm 2 mps 759 mmHg 82%
    23:00 +4°C° 0 mm 2 mps 759 mmHg 83%
    Show more